カタログに戻る

COSMOS 1823 DEB

運用中LEO
NORAD 18728·DEBRIS·🇷🇺 Russia

打ち上げ Feb 20, 1987 から Plesetsk Cosmodrome

Loading…

次のパス (今後24時間)

TLE

最新Source: Space-Track

元期: Sep 14, 2026, 17:10 UTC

1 18728U 87020F   26257.71555722  .00000070  00000-0  68280-3 0  9993
2 18728  73.6195 161.1701 0067136 310.9896  75.8756 12.36072662746926

AllMySatでCOSMOS 1823 DEBをリアルタイム追跡

Download on the App Store